Terminal Aerodrome Forecast
Issued by NWS

Home | Current Version | Previous Version | Text Only | Print | Product List | Glossary On
Versions: 1 2 3 4 5 6 7 8 9 10 11 12 13 14 15 16 17 18 19 20 21 22 23 24 25 26
000
FTUS45 KGJT 281135
TAFASE
TAF
KASE 281135Z 2812/2912 18008KT P6SM VCSH SCT060 BKN080
     FM281700 34005KT P6SM VCSH SCT060 BKN080
     FM290100 20005KT P6SM SCT080 BKN200=

USA.gov is the U.S. government's official web portal to all federal, state and local government web resources and services.